DAL2080 KMCO-KATL

Flight info

Callsign DAL2080
Flight time N/A
Altitude 32000
Route JEEMY4 PAINN SHRKS LAIRI LARZZ JJEDI4
Aircraft B738/M-SDE2E3FGHIRWXY/LB1

Departure

Time 2026-04-26 21:00
Airport Orlando International Airport (KMCO)

Arrival

Time N/A
Airport Hartsfield Jackson Atlanta International Airport (KATL)
Time Latitude Longitude Altitude Speed Heading
2026-04-26 20:35 28.42694 -81.30379 102 ft 0 kts 77°
2026-04-26 20:50 28.42692 -81.30396 102 ft 3 kts 99°
2026-04-26 20:50 28.42699 -81.30413 102 ft 3 kts 140°
2026-04-26 20:51 28.42712 -81.30428 101 ft 2 kts 114°
2026-04-26 20:51 28.42719 -81.30445 101 ft 3 kts 131°
2026-04-26 20:51 28.42733 -81.30456 100 ft 3 kts 175°
2026-04-26 20:51 28.42750 -81.30454 101 ft 2 kts 199°
2026-04-26 20:52 28.42753 -81.30453 100 ft 1 kts 200°
2026-04-26 20:54 28.42727 -81.30460 101 ft 10 kts 191°
2026-04-26 20:54 28.42634 -81.30447 101 ft 15 kts 151°
2026-04-26 20:54 28.42569 -81.30359 101 ft 15 kts 120°
2026-04-26 20:55 28.42522 -81.30266 102 ft 13 kts 119°
2026-04-26 20:55 28.42479 -81.30180 102 ft 12 kts 123°
2026-04-26 20:55 28.42410 -81.30130 102 ft 12 kts 162°
2026-04-26 20:55 28.42365 -81.30060 102 ft 12 kts 94°
2026-04-26 20:56 28.42363 -81.29969 102 ft 12 kts 90°
2026-04-26 20:56 28.42364 -81.29871 102 ft 13 kts 89°
2026-04-26 20:56 28.42365 -81.29772 101 ft 12 kts 89°
2026-04-26 20:56 28.42410 -81.29703 101 ft 12 kts
2026-04-26 20:57 28.42493 -81.29703 101 ft 13 kts 360°
2026-04-26 20:57 28.42608 -81.29703 100 ft 19 kts 359°
2026-04-26 20:57 28.42741 -81.29705 101 ft 19 kts 359°
2026-04-26 20:57 28.42871 -81.29706 104 ft 18 kts 359°
2026-04-26 20:58 28.42995 -81.29707 104 ft 18 kts 360°
2026-04-26 20:58 28.43117 -81.29706 103 ft 17 kts
2026-04-26 20:58 28.43233 -81.29705 105 ft 16 kts
2026-04-26 20:58 28.43346 -81.29703 106 ft 16 kts
2026-04-26 20:59 28.43454 -81.29703 104 ft 15 kts 358°
2026-04-26 20:59 28.43546 -81.29672 101 ft 15 kts 51°
2026-04-26 20:59 28.43515 -81.29588 104 ft 14 kts 164°
2026-04-26 20:59 28.43363 -81.29585 106 ft 47 kts 180°
2026-04-26 21:00 28.42791 -81.29581 102 ft 117 kts 180°
2026-04-26 21:00 28.41779 -81.29584 191 ft 166 kts 184°
2026-04-26 21:00 28.40646 -81.29506 959 ft 161 kts 178°
2026-04-26 21:00 28.39481 -81.29444 1573 ft 172 kts 182°
2026-04-26 21:01 28.38245 -81.29407 2105 ft 191 kts 166°
2026-04-26 21:01 28.37013 -81.28570 2435 ft 222 kts 146°
2026-04-26 21:01 28.35666 -81.27499 2661 ft 245 kts 148°
2026-04-26 21:01 28.34347 -81.26240 3278 ft 255 kts 124°
2026-04-26 21:02 28.33827 -81.24325 3974 ft 264 kts 89°
2026-04-26 21:02 28.34305 -81.22287 4585 ft 275 kts 58°
2026-04-26 21:02 28.35580 -81.20673 5340 ft 277 kts 31°
2026-04-26 21:02 28.37359 -81.19910 6196 ft 274 kts
2026-04-26 21:03 28.39219 -81.20194 7053 ft 271 kts 342°
2026-04-26 21:03 28.41038 -81.20848 7815 ft 277 kts 339°
2026-04-26 21:03 28.42869 -81.21567 8674 ft 279 kts 339°
2026-04-26 21:03 28.44727 -81.22303 9514 ft 286 kts 339°
2026-04-26 21:04 28.46620 -81.23042 10354 ft 292 kts 339°
2026-04-26 21:04 28.48619 -81.23814 10642 ft 317 kts 339°
2026-04-26 21:04 28.50789 -81.24644 10820 ft 340 kts 340°
2026-04-26 21:04 28.53091 -81.25516 11158 ft 356 kts 340°
2026-04-26 21:05 28.55464 -81.26406 11805 ft 360 kts 340°
2026-04-26 21:05 28.57847 -81.27295 12571 ft 361 kts 340°
2026-04-26 21:05 28.60241 -81.28188 13310 ft 363 kts 340°
2026-04-26 21:05 28.62654 -81.29088 13941 ft 367 kts 340°
2026-04-26 21:06 28.65089 -81.29996 14514 ft 370 kts 340°
2026-04-26 21:06 28.67546 -81.30913 15115 ft 373 kts 340°
2026-04-26 21:06 28.70023 -81.31839 15706 ft 376 kts 340°
2026-04-26 21:06 28.72519 -81.32771 16298 ft 379 kts 340°
2026-04-26 21:07 28.75032 -81.33711 16870 ft 382 kts 340°
2026-04-26 21:07 28.77572 -81.34661 17439 ft 385 kts 340°
2026-04-26 21:07 28.80126 -81.35617 18001 ft 388 kts 339°
2026-04-26 21:07 28.82703 -81.36582 18498 ft 392 kts 339°
2026-04-26 21:08 28.85308 -81.37559 18949 ft 396 kts 339°
2026-04-26 21:08 28.87932 -81.38542 19409 ft 399 kts 339°
2026-04-26 21:08 28.90581 -81.39536 19882 ft 402 kts 339°
2026-04-26 21:08 28.93251 -81.40537 20343 ft 406 kts 339°
2026-04-26 21:09 28.95993 -81.41400 20779 ft 412 kts 347°
2026-04-26 21:09 28.98856 -81.41797 21220 ft 417 kts 352°
2026-04-26 21:09 29.01762 -81.42068 21653 ft 421 kts 353°
2026-04-26 21:09 29.04692 -81.42346 22074 ft 424 kts 352°
2026-04-26 21:10 29.07640 -81.42655 22481 ft 428 kts 352°
2026-04-26 21:10 29.10611 -81.42981 22898 ft 431 kts 352°
2026-04-26 21:10 29.13617 -81.43287 23302 ft 435 kts 352°
2026-04-26 21:10 29.16641 -81.43574 23667 ft 438 kts 352°
2026-04-26 21:11 29.19683 -81.43855 24044 ft 439 kts 352°
2026-04-26 21:11 29.22730 -81.44137 24460 ft 440 kts 352°
2026-04-26 21:11 29.25784 -81.44421 24846 ft 441 kts 352°
2026-04-26 21:11 29.28845 -81.44709 25207 ft 442 kts 352°
2026-04-26 21:12 29.31917 -81.45001 25567 ft 444 kts 352°
2026-04-26 21:12 29.35000 -81.45294 25919 ft 445 kts 352°
2026-04-26 21:12 29.38094 -81.45589 26254 ft 447 kts 352°
2026-04-26 21:12 29.41195 -81.45885 26590 ft 448 kts 352°
2026-04-26 21:13 29.44309 -81.46183 26920 ft 450 kts 352°
2026-04-26 21:13 29.47429 -81.46481 27242 ft 451 kts 352°
2026-04-26 21:13 29.50565 -81.46780 27548 ft 453 kts 352°
2026-04-26 21:13 29.53708 -81.47080 27936 ft 452 kts 352°
2026-04-26 21:14 29.56795 -81.47375 28428 ft 449 kts 352°
2026-04-26 21:14 29.59897 -81.47667 28943 ft 446 kts 352°
2026-04-26 21:14 29.63027 -81.47951 29443 ft 444 kts 352°
2026-04-26 21:14 29.66108 -81.48228 29859 ft 444 kts 352°
2026-04-26 21:15 29.69143 -81.48501 30234 ft 443 kts 351°
2026-04-26 21:15 29.72207 -81.48777 30692 ft 439 kts 351°
2026-04-26 21:15 29.75233 -81.49050 31225 ft 434 kts 351°
2026-04-26 21:15 29.78219 -81.49320 31762 ft 428 kts 351°
2026-04-26 21:16 29.81186 -81.49592 31914 ft 430 kts 351°
2026-04-26 21:16 29.87145 -81.50138 31925 ft 427 kts 350°
2026-04-26 21:17 29.92864 -81.51563 31942 ft 418 kts 339°
2026-04-26 21:17 29.98397 -81.53590 31938 ft 417 kts 338°
2026-04-26 21:18 30.03920 -81.55610 31934 ft 417 kts 339°
2026-04-26 21:18 30.09459 -81.57607 31915 ft 417 kts 339°
2026-04-26 21:19 30.15004 -81.59596 31909 ft 418 kts 339°
2026-04-26 21:19 30.20559 -81.61588 31911 ft 418 kts 339°
2026-04-26 21:20 30.26128 -81.63587 31911 ft 419 kts 339°
2026-04-26 21:20 30.31697 -81.65590 31908 ft 420 kts 339°
2026-04-26 21:21 30.37280 -81.67599 31902 ft 420 kts 339°
2026-04-26 21:21 30.42866 -81.69613 31909 ft 421 kts 339°
2026-04-26 21:22 30.48468 -81.71635 31894 ft 421 kts 339°
2026-04-26 21:22 30.54044 -81.73649 31909 ft 419 kts 338°
2026-04-26 21:23 30.62359 -81.76704 31890 ft 414 kts 335°
2026-04-26 21:23 30.67479 -81.79540 31896 ft 409 kts 329°
2026-04-26 21:24 30.71726 -81.82032 31904 ft 408 kts 329°
2026-04-26 21:24 30.77603 -81.85465 31914 ft 406 kts 330°
2026-04-26 21:25 30.82651 -81.88398 31908 ft 405 kts 330°
2026-04-26 21:25 30.87691 -81.91322 31924 ft 404 kts 329°